Location: Newark
(34.6283°N, 36.0776°E)
Time: 04:56:40
(UTC+00:00)

Explorer 7 - All Passes

Search period start: 18 September 2019 00:00
Search period end: 28 September 2019 00:00
Orbit: 485 x 680 km, 50.3° (Epoch: 17 September)

Date Brightness Start Highest point End Pass type
(mag) Time Alt. Az. Time Alt. Az. Time Alt. Az.
18 Sep - 00:07:55 10° NNW 00:09:50 12° N 00:11:46 10° NNE visible
18 Sep - 01:48:26 10° NNW 01:52:02 20° NNE 01:55:39 10° ENE visible
18 Sep - 03:28:26 10° NW 03:33:22 73° NE 03:38:11 10° SE daylight
18 Sep - 05:10:22 10° W 05:13:32 17° SW 05:16:38 10° SSW daylight
18 Sep - 19:07:17 10° S 19:10:58 28° SE 19:14:51 10° ENE night (unlit)
18 Sep - 20:47:07 10° WSW 20:51:23 43° NNW 20:55:54 10° NE night (unlit)
18 Sep - 22:30:17 10° NW 22:33:01 15° NNW 22:35:49 10° NNE night (unlit)
19 Sep - 00:13:13 10° NNW 00:15:21 13° N 00:17:30 10° NNE visible
19 Sep - 01:53:15 10° NNW 01:57:22 26° NNE 02:01:29 10° E visible
19 Sep - 03:33:28 10° NW 03:38:23 70° SW 03:43:10 10° SE daylight
19 Sep - 19:11:40 10° SSW 19:15:49 48° SE 19:20:15 10° ENE night (unlit)
19 Sep - 20:52:38 10° W 20:56:35 29° NNW 21:00:44 10° NNE night (unlit)
19 Sep - 22:36:18 10° NW 22:38:30 13° N 22:40:44 10° NNE night (unlit)
20 Sep - 00:18:13 10° NNW 00:20:50 14° NNE 00:23:28 10° NE visible
20 Sep - 01:58:04 10° NW 02:02:36 36° NNE 02:07:08 10° E visible
20 Sep - 03:38:41 10° WNW 03:43:19 42° SW 03:47:50 10° SSE daylight
20 Sep - 19:16:28 10° SW 19:20:47 85° SE 19:25:23 10° NE night (unlit)
20 Sep - 20:58:23 10° WNW 21:01:53 22° NNW 21:05:32 10° NNE night (unlit)
20 Sep - 22:42:11 10° NNW 22:44:00 12° N 22:45:50 10° NNE night (unlit)
21 Sep - 00:23:05 10° NNW 00:26:16 17° NNE 00:29:29 10° ENE visible
21 Sep - 02:02:57 10° NW 02:07:46 54° NE 02:12:33 10° ESE visible
21 Sep - 03:44:10 10° WNW 03:48:10 25° SW 03:52:05 10° S daylight
21 Sep - 17:42:44 10° S 17:45:39 18° SE 17:48:44 10° E night (unlit)
21 Sep - 19:21:34 10° WSW 19:25:49 58° NW 19:30:22 10° NE night (unlit)
21 Sep - 21:04:18 10° WNW 21:07:15 17° NNW 21:10:19 10° NNE night (unlit)
21 Sep - 22:47:43 10° NNW 22:49:30 12° N 22:51:20 10° NNE night (unlit)
22 Sep - 00:27:54 10° NNW 00:31:39 22° NNE 00:35:25 10° ENE visible
22 Sep - 02:07:55 10° NW 02:12:51 85° NE 02:17:44 10° SE visible
22 Sep - 03:50:17 10° W 03:52:57 15° SW 03:55:35 10° SSW daylight
22 Sep - 17:46:44 10° SSW 17:50:28 32° SE 17:54:26 10° ENE night (unlit)
22 Sep - 19:26:57 10° W 19:30:58 37° NNW 19:35:16 10° NE night (unlit)
22 Sep - 21:10:19 10° NW 21:12:42 14° NNW 21:15:07 10° NNE night (unlit)
22 Sep - 22:52:52 10° NNW 22:55:01 13° N 22:57:11 10° NE night (unlit)
23 Sep - 00:32:42 10° NNW 00:36:56 29° NNE 00:41:12 10° E visible
23 Sep - 02:13:00 10° WNW 02:17:50 59° SW 02:22:37 10° SE visible
23 Sep - 17:51:16 10° SW 17:55:21 58° SE 17:59:44 10° ENE visible
23 Sep - 19:32:33 10° W 19:36:13 26° NNW 19:40:04 10° NNE night (unlit)
23 Sep - 21:16:21 10° NNW 21:18:10 12° N 21:20:02 10° NNE night (unlit)
23 Sep - 22:57:47 10° NNW 23:00:29 15° NNE 23:03:13 10° NE night (unlit)
24 Sep - 00:37:32 10° NW 00:42:08 41° NNE 00:46:46 10° ESE visible
24 Sep - 02:18:17 10° WNW 02:22:44 35° SW 02:27:10 10° SSE visible
24 Sep - 16:18:56 10° SE 16:20:25 12° SE 16:21:56 10° ESE visible
24 Sep - 17:56:10 10° SW 18:00:20 81° NW 18:04:49 10° NE visible
24 Sep - 19:38:22 10° WNW 19:41:32 19° NNW 19:44:50 10° NNE night (unlit)
24 Sep - 21:22:10 10° NNW 21:23:41 11° N 21:25:13 10° NNE night (unlit)
24 Sep - 23:02:36 10° NNW 23:05:53 18° NNE 23:09:14 10° ENE night (unlit)
25 Sep - 00:42:26 10° NW 00:47:16 62° NE 00:52:08 10° ESE visible
25 Sep - 02:23:54 10° W 02:27:34 21° SW 02:31:14 10° S visible
25 Sep - 16:22:03 10° S 16:25:10 21° SE 16:28:26 10° ENE visible
25 Sep - 18:01:21 10° WSW 18:05:25 48° NW 18:09:46 10° NE visible
25 Sep - 19:44:20 10° NW 19:46:56 15° NNW 19:49:35 10° NNE night (unlit)
25 Sep - 21:27:32 10° NNW 21:29:11 12° N 21:30:52 10° NNE night (unlit)
25 Sep - 23:07:23 10° NNW 23:11:13 23° NNE 23:15:08 10° ENE night (unlit)
26 Sep - 00:47:25 10° NW 00:52:18 83° SW 00:57:13 10° SE visible
26 Sep - 02:30:27 10° WSW 02:32:21 12° SW 02:34:14 10° SSW visible
26 Sep - 16:26:15 10° SSW 16:30:00 38° SE 16:33:59 10° ENE visible
26 Sep - 18:06:49 10° W 18:10:35 31° NNW 18:14:36 10° NNE visible
26 Sep - 19:50:25 10° NW 19:52:22 12° N 19:54:21 10° NNE night (unlit)
26 Sep - 21:32:31 10° NNW 21:34:40 13° N 21:36:51 10° NE night (unlit)
26 Sep - 23:12:11 10° NNW 23:16:29 32° NNE 23:20:51 10° E night (unlit)
27 Sep - 00:52:34 10° WNW 00:57:15 50° SW 01:02:00 10° SSE visible
27 Sep - 16:30:54 10° SW 16:34:54 69° SE 16:39:13 10° NE visible
27 Sep - 18:12:30 10° WNW 18:15:51 22° NNW 18:19:22 10° NNE visible
27 Sep - 19:56:29 10° NNW 19:57:51 11° N 19:59:16 10° NNE night (unlit)
27 Sep - 21:37:21 10° NNW 21:40:07 15° NNE 21:42:55 10° NE night (unlit)
27 Sep - 23:17:02 10° NW 23:21:39 46° NE 23:26:22 10° ESE night (unlit)
